DW4238 Weather Reports


time (UTC)temp
C
wind
direction
speed
KPH
gust
KPH
rain 1hr
cm
rain 24hr
cm
rain mn
cm
humidity
%
barometer
mb
20260509162528 26 248 1.6 11.3 0.00 0.00 0.00 85 1010.0
20260509161554 26 253 8.0 12.9 0.00 0.00 0.00 85 1010.0
20260509161045 26 261 6.4 12.9 0.00 0.00 0.00 85 1010.0
20260509160106 26 226 8.0 14.5 0.00 0.00 0.00 86 1009.8
20260509155618 26 161 8.0 12.9 0.00 0.00 0.00 88 1009.6
20260509155057 26 214 9.7 17.7 0.00 0.00 0.00 88 1009.6
20260509154528 25 181 12.9 22.5 0.00 0.00 0.00 89 1009.5
20260509154041 25 209 16.1 22.5 0.00 0.00 0.00 89 1009.2
20260509153040 25 200 12.9 16.1 0.00 0.00 0.00 92 1009.4
20260509152548 25 215 11.3 17.7 0.00 0.00 0.00 92 1009.5
20260509152053 24 200 12.9 17.7 0.00 0.00 0.00 93 1009.5
20260509151522 24 186 14.5 17.7 0.00 0.00 0.00 93 1009.4
20260509151026 24 194 11.3 16.1 0.00 0.00 0.00 94 1009.5
20260509150042 24 204 8.0 16.1 0.00 0.00 0.00 94 1009.7
20260509145553 23 238 12.9 16.1 0.00 0.00 0.00 94 1009.6
20260509144613 23 213 6.4 9.7 0.00 0.00 0.00 94 1009.6
20260509144104 23 222 4.8 6.4 0.00 0.00 0.00 95 1009.7
20260509143608 23 188 4.8 11.3 0.00 0.00 0.00 95 1009.7
20260509143039 23 225 6.4 11.3 0.00 0.00 0.00 94 1009.6
20260509142551 23 204 6.4 11.3 0.00 0.00 0.00 95 1009.6
20260509141610 23 211 0.0 8.0 0.00 0.00 0.00 95 1009.6
20260509141114 23 211 4.8 8.0 0.00 0.00 0.00 95 1009.7
20260509140119 23 182 6.4 9.7 0.00 0.00 0.00 95 1009.7
20260509135621 23 136 3.2 9.7 0.00 0.00 0.00 95 1009.5
20260509134622 23 178 3.2 6.4 0.00 0.00 0.00 95 1009.6
20260509134112 23 177 1.6 6.4 0.00 0.00 0.00 95 1009.8
20260509133623 23 171 4.8 8.0 0.00 0.00 0.00 95 1009.6
20260509133024 23 144 3.2 8.0 0.00 0.00 0.00 95 1009.6
20260509132537 23 128 3.2 8.0 0.00 0.00 0.00 95 1009.8
20260509131558 23 167 1.6 8.0 0.00 0.00 0.00 94 1009.8
20260509131110 23 167 3.2 8.0 0.00 0.00 0.00 94 1009.8
20260509130614 23 167 0.0 4.8 0.00 0.00 0.00 94 1009.6
20260509130042 23 163 0.0 0.0 0.00 0.00 0.00 94 1009.7
20260509125545 23 163 0.0 0.0 0.00 0.00 0.00 94 1009.6
20260509124619 23 145 0.0 0.0 0.00 0.00 0.00 94 1009.8
20260509124104 23 145 0.0 0.0 0.00 0.00 0.00 94 1009.8
20260509123614 23 145 0.0 0.0 0.00 0.00 0.00 94 1009.7
20260509123043 23 145 0.0 0.0 0.00 0.00 0.00 94 1009.6
20260509122548 23 145 0.0 0.0 0.00 0.00 0.00 94 1009.5
20260509121610 23 145 0.0 0.0 0.00 0.00 0.00 94 1009.2
20260509121026 23 145 0.0 0.0 0.00 0.00 0.00 94 1009.0
20260509120536 23 145 0.0 3.2 0.00 0.00 0.00 94 1009.1
20260509120137 23 145 0.0 4.8 0.00 0.00 0.00 94 1009.1
20260509115531 23 145 3.2 4.8 0.00 0.23 0.00 94 1009.2
20260509114554 23 145 0.0 1.6 0.00 0.23 0.00 94 1009.6
20260509114105 23 145 0.0 3.2 0.00 0.23 0.00 94 1009.7
20260509113609 23 145 0.0 3.2 0.00 0.23 0.00 94 1009.7
20260509113037 23 145 1.6 6.4 0.00 0.23 0.00 94 1009.9
20260509112541 23 145 3.2 8.0 0.00 0.23 0.00 94 1009.9
20260509111553 23 142 3.2 6.4 0.00 0.23 0.00 94 1009.9
20260509111036 23 144 0.0 0.0 0.00 0.23 0.00 94 1009.9
20260509105607 23 144 0.0 0.0 0.00 0.23 0.00 94 1009.7
20260509105118 23 144 0.0 0.0 0.00 0.23 0.00 94 1009.7
20260509104537 23 144 0.0 0.0 0.00 0.23 0.00 94 1009.6
20260509104025 23 144 0.0 0.0 0.00 0.23 0.00 94 1009.2
20260509103126 23 144 0.0 0.0 0.00 0.23 0.00 94 1009.4
20260509102618 23 144 0.0 0.0 0.00 0.23 0.00 94 1009.5
20260509102021 23 144 0.0 0.0 0.00 0.23 0.00 94 1009.5
20260509101109 23 143 0.0 0.0 0.00 0.23 0.00 94 1009.7
20260509100620 23 143 0.0 0.0 0.00 0.23 0.00 94 1009.7
20260509100042 23 143 0.0 0.0 0.00 0.23 0.00 94 1009.6
20260509095531 23 146 0.0 0.0 0.00 0.23 0.00 94 1009.4
20260509094553 23 150 0.0 0.0 0.00 0.23 0.00 94 1009.0
20260509094102 23 154 0.0 3.2 0.00 0.23 0.00 94 1008.9
20260509093604 23 155 0.0 3.2 0.00 0.23 0.00 94 1008.8
20260509093035 23 155 0.0 4.8 0.00 0.23 0.00 94 1008.8
20260509092546 23 155 1.6 8.0 0.00 0.23 0.00 94 1008.8
20260509091542 23 155 4.8 9.7 0.00 0.23 0.00 94 1008.9
20260509091053 23 150 6.4 9.7 0.00 0.23 0.00 94 1008.7
20260509090113 23 150 0.0 3.2 0.00 0.23 0.00 94 1009.0
20260509085522 23 150 0.0 4.8 0.00 0.23 0.00 94 1009.0
20260509085127 23 150 3.2 12.9 0.00 0.23 0.00 94 1008.9
20260509084531 23 148 6.4 12.9 0.00 0.23 0.00 94 1008.9
20260509084047 23 148 8.0 12.9 0.00 0.23 0.00 94 1009.1
20260509083049 23 173 6.4 9.7 0.00 0.23 0.00 93 1009.3
20260509082554 23 189 6.4 9.7 0.00 0.23 0.00 93 1009.4
20260509082106 23 196 0.0 6.4 0.00 0.23 0.00 93 1009.6
20260509081523 23 150 0.0 0.0 0.00 0.23 0.00 93 1009.8
20260509081035 23 150 0.0 0.0 0.00 0.23 0.00 93 1009.9
20260509080053 23 150 0.0 3.2 0.00 0.23 0.00 93 1009.7
20260509075605 23 150 0.0 0.0 0.00 0.23 0.00 93 1009.7
20260509074606 23 150 0.0 0.0 0.00 0.23 0.00 93 1009.5
20260509074117 23 150 0.0 1.6 0.00 0.23 0.00 93 1009.5
20260509073620 23 150 0.0 4.8 0.00 0.23 0.00 93 1009.4
20260509073047 23 150 1.6 8.0 0.00 0.23 0.00 93 1009.5
20260509072551 23 150 3.2 8.0 0.00 0.23 0.00 93 1009.5
20260509071611 23 150 4.8 11.3 0.00 0.23 0.00 93 1009.5
20260509071027 23 148 4.8 11.3 0.00 0.23 0.00 93 1009.5
20260509070027 23 163 8.0 14.5 0.00 0.23 0.00 93 1009.3
20260509065541 23 159 6.4 14.5 0.00 0.23 0.00 93 1009.1
20260509065024 23 144 9.7 12.9 0.00 0.23 0.00 93 1009.1
20260509064545 23 163 6.4 12.9 0.00 0.23 0.00 93 1009.2
20260509064028 23 149 6.4 11.3 0.00 0.23 0.00 92 1009.2
20260509063545 23 159 8.0 11.3 0.00 0.23 0.00 92 1009.1
20260509063044 23 150 6.4 11.3 0.00 0.23 0.00 92 1009.2
20260509062524 23 155 6.4 12.9 0.00 0.23 0.00 92 1009.1
20260509062032 23 144 8.0 16.1 0.00 0.23 0.00 92 1009.1
20260509061531 23 150 9.7 16.1 0.00 0.23 0.00 92 1009.0
20260509061041 23 139 6.4 17.7 0.00 0.23 0.00 92 1009.1
20260509060525 23 146 12.9 17.7 0.00 0.23 0.00 92 1009.2
20260509060022 23 161 11.3 20.9 0.00 0.23 0.00 92 1009.2
20260509055532 23 148 17.7 20.9 0.00 0.23 0.00 92 1009.4
20260509055022 23 144 12.9 19.3 0.00 0.23 0.00 92 1009.4
20260509054534 23 161 12.9 19.3 0.00 0.23 0.00 92 1009.5
20260509054025 23 153 11.3 16.1 0.00 0.23 0.00 92 1009.4
20260509053553 23 153 11.3 19.3 0.00 0.23 0.00 92 1009.4
20260509053033 23 144 12.9 20.9 0.00 0.23 0.00 92 1009.4
20260509052522 23 143 14.5 22.5 0.00 0.23 0.00 92 1009.3
20260509052037 23 155 16.1 22.5 0.00 0.23 0.00 92 1009.2
20260509051524 23 136 17.7 22.5 0.00 0.23 0.00 92 1009.1
20260509051053 23 148 11.3 19.3 0.00 0.23 0.00 92 1009.1
20260509050526 23 171 12.9 22.5 0.00 0.23 0.00 92 1009.0
20260509050041 23 161 12.9 22.5 0.00 0.23 0.23 92 1009.0
20260509045543 23 163 17.7 22.5 0.00 0.23 0.23 92 1009.0
20260509044611 23 144 8.0 17.7 0.00 0.23 0.23 92 1009.1
20260509044114 23 147 9.7 19.3 0.00 0.23 0.23 91 1009.1
20260509043525 23 134 11.3 22.5 0.00 0.23 0.23 91 1009.0
20260509042631 23 142 14.5 22.5 0.00 0.23 0.23 91 1009.0
20260509042112 23 148 14.5 22.5 0.00 0.23 0.23 91 1009.1
20260509041538 23 140 14.5 20.9 0.00 0.23 0.23 91 1009.2
20260509041041 23 149 12.9 19.3 0.00 0.23 0.23 91 1009.1
20260509040111 23 144 12.9 16.1 0.00 0.23 0.23 91 1009.3
20260509035553 23 139 8.0 14.5 0.00 0.23 0.23 91 1009.3
20260509034612 23 142 6.4 12.9 0.00 0.23 0.23 91 1009.1
20260509034127 23 143 4.8 12.9 0.00 0.23 0.23 91 1009.1
20260509033105 23 146 11.3 16.1 0.00 0.23 0.23 91 1009.1
20260509032616 23 149 11.3 17.7 0.00 0.23 0.23 90 1009.2
20260509032055 23 140 11.3 17.7 0.00 0.23 0.23 90 1009.2
20260509031526 23 144 11.3 16.1 0.00 0.23 0.23 90 1009.1
20260509031029 23 150 9.7 24.1 0.00 0.23 0.23 90 1009.1
20260509030058 23 142 9.7 16.1 0.00 0.23 0.23 89 1009.1
20260509025541 23 155 9.7 16.1 0.00 0.23 0.23 89 1008.9
20260509024612 23 157 4.8 11.3 0.00 0.23 0.23 89 1008.8
20260509024112 23 150 6.4 11.3 0.00 0.23 0.23 89 1008.7
20260509023558 23 150 6.4 14.5 0.00 0.23 0.23 89 1008.5
20260509023021 23 140 4.8 14.5 0.00 0.23 0.23 88 1008.3
20260509022531 23 126 6.4 11.3 0.00 0.23 0.23 88 1008.4
20260509021553 23 128 6.4 12.9 0.00 0.23 0.23 88 1008.4
20260509021105 23 139 6.4 14.5 0.00 0.23 0.23 88 1008.3
20260509020608 23 148 8.0 14.5 0.00 0.23 0.23 88 1008.3
20260509020038 24 146 8.0 12.9 0.00 0.23 0.23 88 1008.3
20260509015541 24 134 9.7 12.9 0.00 0.23 0.23 88 1008.3
20260509014542 24 143 9.7 14.5 0.00 0.23 0.23 87 1008.4
20260509014030 24 172 6.4 12.9 0.00 0.23 0.23 87 1008.5
20260509013051 24 142 4.8 12.9 0.00 0.23 0.23 86 1008.1
20260509012601 24 144 8.0 12.9 0.00 0.23 0.23 86 1008.0
20260509012106 25 138 8.0 14.5 0.00 0.23 0.23 86 1007.9
20260509011532 25 146 9.7 14.5 0.00 0.23 0.23 86 1008.0
20260509011040 25 153 8.0 12.9 0.00 0.23 0.23 86 1008.1
20260509010043 25 137 9.7 16.1 0.00 0.23 0.23 85 1008.1
20260509005554 25 134 4.8 8.0 0.00 0.23 0.23 85 1008.0
20260509005055 25 134 3.2 8.0 0.00 0.23 0.23 85 1007.9
20260509004526 25 136 4.8 8.0 0.00 0.23 0.23 85 1007.9
20260509004038 25 135 4.8 8.0 0.00 0.23 0.23 85 1008.1
20260509003057 25 128 3.2 8.0 0.00 0.23 0.23 84 1008.0
20260509002608 25 127 3.2 11.3 0.00 0.23 0.23 84 1008.0
20260509002115 25 115 4.8 11.3 0.00 0.23 0.23 84 1008.0
20260509001542 25 138 4.8 12.9 0.00 0.23 0.23 84 1008.1
20260509001046 25 144 4.8 9.7 0.00 0.23 0.23 84 1008.1
20260509000053 25 132 6.4 12.9 0.00 0.23 0.23 83 1008.1
20260508235613 25 135 6.4 11.3 0.00 0.23 0.23 83 1008.0
20260508235126 25 111 4.8 12.9 0.00 0.23 0.23 83 1007.9
20260508234023 25 125 6.4 11.3 0.00 0.23 0.23 83 1008.0
20260508233022 25 113 4.8 9.7 0.00 0.23 0.23 83 1008.1
20260508232538 25 96 3.2 12.9 0.00 0.23 0.23 83 1008.0
20260508231557 25 119 6.4 14.5 0.00 0.23 0.23 84 1008.0
20260508231110 25 79 8.0 14.5 0.00 0.23 0.23 83 1008.0
20260508230611 25 87 6.4 12.9 0.00 0.23 0.23 83 1008.1
20260508230037 25 126 6.4 14.5 0.00 0.23 0.23 83 1008.1
20260508225540 25 71 6.4 14.5 0.00 0.23 0.23 83 1008.0
20260508224540 25 117 8.0 12.9 0.00 0.23 0.23 83 1008.1
20260508224050 25 139 3.2 11.3 0.00 0.23 0.23 83 1008.2
20260508223612 25 90 6.4 11.3 0.00 0.23 0.23 83 1008.1
20260508223041 25 155 4.8 9.7 0.00 0.23 0.23 83 1008.2
20260508222551 25 84 4.8 9.7 0.00 0.23 0.23 83 1008.2
20260508221612 25 116 6.4 12.9 0.00 0.23 0.23 83 1008.3
20260508221053 25 146 4.8 8.0 0.00 0.23 0.23 83 1008.3
20260508220121 25 172 3.2 8.0 0.00 0.23 0.23 83 1008.3
20260508215602 25 171 3.2 11.3 0.00 0.23 0.23 84 1008.3
20260508215113 25 181 6.4 11.3 0.00 0.23 0.23 84 1008.4
20260508214530 25 144 4.8 11.3 0.00 0.23 0.23 83 1008.6
20260508213615 25 165 8.0 12.9 0.00 0.23 0.23 83 1008.6
20260508213024 25 146 4.8 8.0 0.00 0.23 0.23 83 1008.6
20260508212606 25 140 4.8 11.3 0.00 0.23 0.23 83 1008.7
20260508212116 25 138 6.4 11.3 0.00 0.23 0.23 83 1008.7
20260508211523 25 114 3.2 11.3 0.00 0.23 0.23 84 1008.8
20260508211028 25 100 6.4 11.3 0.00 0.23 0.23 84 1008.8
20260508210638 24 144 4.8 9.7 0.00 0.23 0.23 84 1008.8
20260508210036 24 182 3.2 6.4 0.00 0.23 0.23 84 1008.9
20260508205545 24 182 3.2 8.0 0.00 0.23 0.23 84 1009.0
20260508204606 24 143 4.8 11.3 0.00 0.23 0.23 84 1009.1
20260508204055 24 142 4.8 8.0 0.00 0.23 0.23 84 1009.2
20260508203052 24 139 3.2 12.9 0.00 0.23 0.23 84 1009.2
20260508202605 24 150 8.0 12.9 0.00 0.23 0.23 84 1009.3
20260508202108 24 121 4.8 11.3 0.00 0.23 0.23 85 1009.4
20260508201534 23 173 6.4 17.7 0.00 0.23 0.23 84 1009.5
20260508201034 23 176 9.7 17.7 0.00 0.23 0.23 84 1009.7
20260508195522 23 140 4.8 8.0 0.00 0.23 0.23 84 1009.9
20260508195032 24 107 4.8 14.5 0.00 0.23 0.23 84 1009.9
20260508194612 24 90 6.4 14.5 0.00 0.23 0.23 85 1009.7
20260508194024 23 87 4.8 12.9 0.00 0.23 0.23 85 1009.8
20260508193607 23 145 6.4 12.9 0.00 0.23 0.23 85 1009.9
20260508193039 23 145 4.8 14.5 0.00 0.23 0.23 86 1009.9
20260508192543 23 159 9.7 14.5 0.00 0.23 0.23 85 1010.0
20260508191542 23 137 4.8 8.0 0.00 0.23 0.23 85 1010.1
20260508191051 23 108 4.8 6.4 0.00 0.23 0.23 85 1010.3
20260508190048 23 105 4.8 11.3 0.00 0.23 0.23 85 1010.4
20260508185558 23 91 6.4 11.3 0.00 0.23 0.23 86 1010.3
20260508184619 23 63 6.4 9.7 0.00 0.23 0.23 87 1010.4
20260508184102 22 99 1.6 11.3 0.00 0.23 0.23 86 1010.6
20260508183045 22 98 4.8 12.9 0.00 0.23 0.23 86 1010.8
20260508182534 22 83 4.8 12.9 0.00 0.23 0.23 87 1010.9
20260508181555 22 80 6.4 12.9 0.00 0.23 0.23 86 1010.9
20260508181107 22 26 6.4 9.7 0.00 0.23 0.23 87 1010.9
20260508180610 22 71 4.8 9.7 0.00 0.23 0.23 87 1011.0
20260508180034 21 119 4.8 12.9 0.00 0.23 0.23 87 1011.0
20260508175547 21 110 6.4 9.7 0.00 0.23 0.23 88 1011.1
20260508175031 21 113 4.8 11.3 0.00 0.23 0.23 88 1011.1
20260508174613 21 113 6.4 11.3 0.00 0.23 0.23 88 1011.1
20260508174027 21 138 4.8 11.3 0.00 0.23 0.23 88 1011.3
20260508173049 21 124 4.8 8.0 0.00 0.23 0.23 88 1011.4
20260508172600 21 128 4.8 12.9 0.00 0.23 0.23 88 1011.4
20260508172103 21 130 6.4 12.9 0.00 0.23 0.23 88 1011.5
20260508171530 20 120 4.8 9.7 0.00 0.23 0.23 88 1011.4
20260508171026 20 126 6.4 9.7 0.00 0.23 0.23 88 1011.6
20260508170053 20 137 3.2 11.3 0.00 0.23 0.23 88 1011.9
20260508165556 20 138 4.8 11.3 0.00 0.23 0.23 88 1012.0
20260508164621 20 145 3.2 11.3 0.00 0.23 0.23 88 1012.1
20260508164111 20 146 6.4 11.3 0.00 0.23 0.23 88 1012.1
20260508163620 20 159 4.8 8.0 0.00 0.23 0.23 88 1012.1
20260508163041 20 129 4.8 12.9 0.00 0.23 0.23 88 1012.0